• In India
  • List of Countries
  • For 7 days
  • Water Temperature
  • Satellite Maps
  • Weather Map
  • Weather Widgets
  • user-avatar
    Login

    Hourly Weather Popil'nya

    Today, 21 August, Tuesday

    Time Temperature Precipitation Wind Pressure Humidity
    00:00 +20°C° 0 mm 2 mps 748 mmHg 73%
    01:00 +19°C° 0 mm 2 mps 748 mmHg 74%
    02:00 +19°C° 0 mm 3 mps 748 mmHg 74%
    03:00 +19°C° 0 mm 3 mps 748 mmHg 75%
    04:00 +19°C° 0 mm 3 mps 747 mmHg 75%
    05:00 +19°C° 0 mm 3 mps 747 mmHg 75%
    06:00 +20°C° 0 mm 3 mps 747 mmHg 71%
    07:00 +22°C° 0 mm 4 mps 747 mmHg 67%
    08:00 +25°C° 0 mm 4 mps 747 mmHg 63%
    09:00 +26°C° 0.2 mm 5 mps 747 mmHg 61%
    10:00 +28°C° 0.2 mm 5 mps 747 mmHg 58%
    11:00 +29°C° 0.2 mm 6 mps 747 mmHg 55%
    12:00 +29°C° 0.8 mm 6 mps 747 mmHg 57%
    13:00 +28°C° 0.8 mm 5 mps 747 mmHg 59%
    14:00 +28°C° 0.8 mm 5 mps 747 mmHg 60%
    15:00 +27°C° 0.3 mm 5 mps 747 mmHg 62%
    16:00 +26°C° 0.3 mm 5 mps 747 mmHg 64%
    17:00 +25°C° 0.3 mm 4 mps 747 mmHg 66%
    18:00 +23°C° 0 mm 4 mps 747 mmHg 71%
    19:00 +21°C° 0 mm 4 mps 748 mmHg 75%
    20:00 +19°C° 0 mm 3 mps 748 mmHg 79%
    21:00 +18°C° 0 mm 3 mps 748 mmHg 81%
    22:00 +17°C° 0 mm 3 mps 749 mmHg 83%
    23:00 +16°C° 0 mm 3 mps 749 mmHg 85%

    Tomorrow, 22 August, Wednesday

    Time Temperature Precipitation Wind Pressure Humidity
    00:00 +16°C° 0 mm 3 mps 749 mmHg 86%
    01:00 +14°C° 0 mm 3 mps 750 mmHg 87%
    02:00 +14°C° 0 mm 3 mps 750 mmHg 88%
    03:00 +13°C° 0 mm 3 mps 750 mmHg 89%
    04:00 +12°C° 0 mm 3 mps 751 mmHg 89%
    05:00 +12°C° 0 mm 3 mps 751 mmHg 90%
    06:00 +13°C° 0 mm 3 mps 751 mmHg 83%
    07:00 +16°C° 0 mm 3 mps 752 mmHg 76%
    08:00 +17°C° 0 mm 3 mps 752 mmHg 69%
    09:00 +19°C° 0 mm 3 mps 753 mmHg 61%
    10:00 +20°C° 0 mm 4 mps 753 mmHg 54%
    11:00 +22°C° 0 mm 4 mps 753 mmHg 47%
    12:00 +22°C° 0 mm 4 mps 753 mmHg 45%
    13:00 +22°C° 0 mm 4 mps 753 mmHg 43%
    14:00 +22°C° 0 mm 4 mps 753 mmHg 42%
    15:00 +22°C° 0 mm 4 mps 753 mmHg 44%
    16:00 +21°C° 0 mm 4 mps 753 mmHg 46%
    17:00 +21°C° 0 mm 4 mps 753 mmHg 49%
    18:00 +18°C° 0 mm 3 mps 754 mmHg 55%
    19:00 +16°C° 0 mm 3 mps 754 mmHg 62%
    20:00 +14°C° 0 mm 2 mps 754 mmHg 69%
    21:00 +14°C° 0 mm 2 mps 755 mmHg 72%
    22:00 +13°C° 0 mm 2 mps 755 mmHg 76%
    23:00 +12°C° 0 mm 2 mps 755 mmHg 79%

    Day after tomorrow, 23 August, Thursday

    Time Temperature Precipitation Wind Pressure Humidity
    00:00 +12°C° 0 mm 2 mps 755 mmHg 82%
    01:00 +10°C° 0 mm 2 mps 755 mmHg 84%
    02:00 +10°C° 0 mm 2 mps 755 mmHg 86%
    03:00 +11°C° 0 mm 1 mps 755 mmHg 87%
    04:00 +10°C° 0 mm 1 mps 756 mmHg 88%
    05:00 +10°C° 0 mm 1 mps 756 mmHg 89%
    06:00 +12°C° 0 mm 1 mps 756 mmHg 81%
    07:00 +14°C° 0 mm 2 mps 756 mmHg 73%
    08:00 +16°C° 0 mm 2 mps 756 mmHg 64%
    09:00 +18°C° 0 mm 2 mps 756 mmHg 58%
    10:00 +19°C° 0 mm 2 mps 756 mmHg 52%
    11:00 +21°C° 0 mm 2 mps 756 mmHg 45%
    12:00 +21°C° 0 mm 2 mps 755 mmHg 43%
    13:00 +23°C° 0 mm 2 mps 755 mmHg 40%
    14:00 +24°C° 0 mm 1 mps 755 mmHg 37%
    15:00 +24°C° 0 mm 1 mps 754 mmHg 39%
    16:00 +24°C° 0 mm 1 mps 754 mmHg 41%
    17:00 +24°C° 0 mm 1 mps 754 mmHg 43%
    18:00 +20°C° 0 mm 2 mps 754 mmHg 49%
    19:00 +18°C° 0 mm 2 mps 754 mmHg 55%
    20:00 +16°C° 0 mm 2 mps 754 mmHg 61%
    21:00 +15°C° 0 mm 2 mps 754 mmHg 64%
    22:00 +15°C° 0 mm 2 mps 754 mmHg 66%
    23:00 +14°C° 0 mm 2 mps 754 mmHg 69%

    24 August, Friday

    Time Temperature Precipitation Wind Pressure Humidity
    00:00 +13°C° 0 mm 2 mps 754 mmHg 70%
    01:00 +13°C° 0 mm 2 mps 753 mmHg 72%
    02:00 +13°C° 0 mm 2 mps 753 mmHg 73%
    03:00 +12°C° 0 mm 2 mps 753 mmHg 74%
    04:00 +12°C° 0 mm 2 mps 753 mmHg 75%
    05:00 +12°C° 0 mm 2 mps 753 mmHg 76%
    06:00 +13°C° 0 mm 3 mps 753 mmHg 70%
    07:00 +16°C° 0 mm 3 mps 753 mmHg 64%
    08:00 +18°C° 0 mm 3 mps 753 mmHg 57%
    09:00 +20°C° 0 mm 3 mps 753 mmHg 51%
    10:00 +22°C° 0 mm 3 mps 752 mmHg 46%
    11:00 +25°C° 0 mm 4 mps 752 mmHg 40%
    12:00 +25°C° 0 mm 4 mps 752 mmHg 38%
    13:00 +26°C° 0 mm 3 mps 751 mmHg 37%
    14:00 +27°C° 0 mm 3 mps 751 mmHg 35%
    15:00 +26°C° 0 mm 3 mps 751 mmHg 38%
    16:00 +26°C° 0 mm 3 mps 750 mmHg 41%
    17:00 +26°C° 0 mm 2 mps 750 mmHg 43%
    18:00 +23°C° 0 mm 2 mps 750 mmHg 48%
    19:00 +20°C° 0 mm 2 mps 750 mmHg 53%
    20:00 +18°C° 0 mm 2 mps 750 mmHg 58%
    21:00 +17°C° 0 mm 2 mps 750 mmHg 59%
    22:00 +16°C° 0 mm 2 mps 749 mmHg 60%
    23:00 +16°C° 0 mm 3 mps 749 mmHg 61%

    25 August, Saturday

    Time Temperature Precipitation Wind Pressure Humidity
    00:00 +14°C° 0 mm 3 mps 749 mmHg 62%
    01:00 +14°C° 0 mm 3 mps 749 mmHg 63%
    02:00 +13°C° 0 mm 3 mps 749 mmHg 64%
    03:00 +13°C° 0 mm 3 mps 749 mmHg 64%
    04:00 +13°C° 0 mm 3 mps 749 mmHg 65%
    05:00 +12°C° 0 mm 3 mps 749 mmHg 65%
    06:00 +16°C° 0 mm 3 mps 749 mmHg 60%
    07:00 +18°C° 0 mm 4 mps 749 mmHg 55%
    08:00 +20°C° 0 mm 4 mps 749 mmHg 50%
    09:00 +22°C° 0 mm 4 mps 749 mmHg 45%
    10:00 +25°C° 0 mm 4 mps 749 mmHg 41%
    11:00 +27°C° 0 mm 5 mps 749 mmHg 36%
    12:00 +28°C° 0 mm 5 mps 748 mmHg 35%
    13:00 +29°C° 0 mm 5 mps 748 mmHg 35%
    14:00 +29°C° 0 mm 5 mps 748 mmHg 34%
    15:00 +29°C° 0 mm 4 mps 748 mmHg 38%
    16:00 +28°C° 0 mm 4 mps 747 mmHg 41%
    17:00 +28°C° 0 mm 3 mps 747 mmHg 45%
    18:00 +26°C° 0 mm 3 mps 747 mmHg 49%
    19:00 +22°C° 0 mm 3 mps 747 mmHg 53%
    20:00 +20°C° 0 mm 3 mps 747 mmHg 57%
    21:00 +20°C° 0 mm 3 mps 747 mmHg 56%
    22:00 +19°C° 0 mm 3 mps 747 mmHg 55%
    23:00 +18°C° 0 mm 3 mps 747 mmHg 54%

    26 August, Sunday

    Time Temperature Precipitation Wind Pressure Humidity
    00:00 +18°C° 0 mm 3 mps 747 mmHg 54%
    01:00 +17°C° 0 mm 3 mps 748 mmHg 53%
    02:00 +17°C° 0 mm 3 mps 748 mmHg 53%
    03:00 +16°C° 0 mm 3 mps 748 mmHg 53%
    04:00 +16°C° 0 mm 3 mps 748 mmHg 53%
    05:00 +16°C° 0 mm 3 mps 748 mmHg 53%
    06:00 +18°C° 0 mm 3 mps 748 mmHg 50%
    07:00 +19°C° 0 mm 3 mps 748 mmHg 48%
    08:00 +21°C° 0 mm 3 mps 748 mmHg 46%
    09:00 +24°C° 0 mm 3 mps 748 mmHg 42%
    10:00 +27°C° 0 mm 4 mps 748 mmHg 38%
    11:00 +29°C° 0 mm 4 mps 748 mmHg 34%
    12:00 +29°C° 0 mm 4 mps 748 mmHg 33%
    13:00 +30°C° 0 mm 4 mps 748 mmHg 32%
    14:00 +30°C° 0 mm 4 mps 747 mmHg 30%
    15:00 +30°C° 0 mm 4 mps 747 mmHg 33%
    16:00 +29°C° 0 mm 4 mps 747 mmHg 36%
    17:00 +28°C° 0 mm 4 mps 747 mmHg 39%
    18:00 +26°C° 0 mm 4 mps 747 mmHg 43%
    19:00 +23°C° 0 mm 4 mps 747 mmHg 46%
    20:00 +21°C° 0 mm 4 mps 747 mmHg 49%
    21:00 +20°C° 0 mm 4 mps 747 mmHg 50%
    22:00 +19°C° 0 mm 3 mps 747 mmHg 50%
    23:00 +18°C° 0 mm 3 mps 747 mmHg 51%
    Show more